Regional Weather Roundup
Issued by NWS

Home | Current Version | Previous Version | Graphics & Text | Print | Product List | Glossary On
Versions: 1 2 3 4 5 6 7 8 9 10 11 12 13 14 15 16 17 18 19 20 21 22 23 24 25 26 27 28 29 30 31 32 33 34 35 36 37 38 39 40 41 42 43 44 45 46 47 48 49 50
000
ASUS45 KBOU 160807
RWRCO

WEATHER ROUNDUP FOR COLORADO
NATIONAL WEATHER SERVICE DENVER/BOULDER CO
100 AM MST MON JAN 16 2017

NOTE: "FAIR" INDICATES FEW OR NO CLOUDS BELOW 12000 FEET WITH NO
SIGNIFICANT WEATHER AND/OR OBSTRUCTIONS TO VISIBILITY.

COZ001>005-013-030-031-160900-
...NORTHWEST COLORADO...

CITY           SKY/WX    TMP DP  RH WIND       PRES   REMARKS
CRAIG          CLOUDY    19  14  81 W6        30.06S WCI  11
HAYDEN         CLOUDY    19  16  86 W6        30.03S VSB 1   WCI  11
MEEKER         CLOUDY    21  17  84 CALM      30.03S
MOUNT WERNER   NOT AVBL
STEAMBOAT SPGS CLOUDY    20  19  96 SW5       30.01S VSB 3/4 WCI  14
WALDEN           N/A    N/A N/A N/A CALM      29.98S
$$

COZ006>008-011-160900-
...WEST CENTRAL VALLEYS...

CITY           SKY/WX    TMP DP  RH WIND       PRES   REMARKS
GRAND JUNCTION FAIR      34  27  75 N7        29.97S WCI  28
MONTROSE       LGT SNOW  32  32 100 CALM      29.97S FOG
EAGLE          CLOUDY    27  25  92 CALM      29.97R
RIFLE          CLOUDY    32  26  78 SW3       29.99R
DELTA          DRIZZLE   37  32  84 CALM      29.95S
NUCLA          CLOUDY    34  32  93 NW6       29.97S WCI  29
$$

COZ017>023-064>068-160900-
...SOUTHWEST COLORADO...

CITY           SKY/WX    TMP DP  RH WIND       PRES   REMARKS
DURANGO        CLOUDY    35  30  82 SW9       29.85F WCI  28
CORTEZ         CLOUDY    36  34  92 W7        29.91S
PAGOSA SPRINGS LGT SNOW  33  33 100 CALM      29.86F
TELLURIDE      LGT SNOW  28  28 100 W3        29.92S
WOLF CREEK PAS   N/A     23  23 100 NW3       29.94F
$$

COZ009-010-012-014-032>034-037-058>063-160900-
...CENTRAL COLORADO...

CITY           SKY/WX    TMP DP  RH WIND       PRES   REMARKS
ASPEN          CLOUDY    28  28 100 N3        29.91S FOG
BUENA VISTA    LGT SNOW  30  28  93 CALM      29.88S
COPPER MTN     SNOW      27  21  80 CALM      29.94S VSB 1/2
BERTHOUD PASS  NOT AVBL
COTTONWOOD PAS LGT SNOW  32  30  93 CALM      29.89F
GUNNISON       LGT SNOW  22  21  96 CALM      29.91S FOG
KREMMLING      LGT SNOW  27  23  86 CALM      29.97S
LEADVILLE      LGT SNOW  24  22  91 CALM      29.88F FOG
MONARCH PASS   CLOUDY    23  21  93 MISG      29.99F
SALIDA         CLOUDY    33  32  96 CALM      29.95F
SUNLIGHT       CLOUDY    21  21 100 CALM      29.98S FOG
WILKERSON PASS CLOUDY   N/A N/A N/A NE9       29.93F FOG
$$

COZ069>075-160900-
...SAN LUIS VALLEY/SANGRE DE CRISTO MOUNTAINS...

CITY           SKY/WX    TMP DP  RH WIND       PRES   REMARKS
ALAMOSA        LGT SNOW  31  30  96 S5        29.83F FOG     WCI  26
LA VETA PASS   LGT SNOW  23  21  93 CALM      29.87S VSB 1
SAGUACHE       LGT SNOW  32  30  93 NW7       29.84F WCI  26
$$

COZ035-036-038>040-160900-
...NORTHERN COLORADO FRONT RANGE...

CITY           SKY/WX    TMP DP  RH WIND       PRES   REMARKS
DENVER INTL AP FLURRIES  30  22  72 NW13      29.95S WCI  20
DMNS CITY PARK   N/A     30  29  96 N3        29.96F
AURORA         LGT SNOW  29  29  99 NW8       29.95F FOG     WCI  21
FRONT RANGE AP FLURRIES  32  27  80 NW13      29.95S WCI  22
ERIE MUNI ARPT LGT SNOW  31  30  96 W6        29.97F WCI  25
BOULDER MUN AP LGT SNOW  32  30  93 CALM      29.97S
CENTENNIAL     LGT SNOW  28  26  92 N10       29.95S FOG     WCI  19
BROOMFIELD     LGT SNOW  32  30  93 NW6       29.96F VSB 1   WCI  26
FORT COLLINS   FAIR      32  30  93 N6        29.98S WCI  26
LONGMONT       LGT SNOW  33  31  92 SW5       30.00S WCI  28
$$

COZ041-046-047-076>085-087-088-160900-
...PIKES PEAK/PALMER DIVIDE AND SOUTHERN FOOTHILLS...

CITY           SKY/WX    TMP DP  RH WIND       PRES   REMARKS
COLO. SPRINGS  LGT SNOW  33  26  75 NW17      29.88F WCI  22
A. F. ACADEMY  LGT SNOW  29  26  87 N20       29.87F FOG     WCI  17
SCHRIEVER AFB  NOT AVBL
ELLICOTT       LGT SNOW N/A N/A N/A N15       29.86F
FALCON         FLURRIES  30  24  80 N17G26    29.86F WCI  18
FORT CARSON    LGT SNOW  34  30  86 NE5       29.89F WCI  30
LIMON          CLOUDY    27  25  92 N14       29.90F WCI  16
MONUMENT HILL  LGT SNOW  27  25  93 NW13      29.92F WCI  16
TRINIDAD       SNOW      31  29  92 NW5       29.87F VSB 1/2 WCI  26
$$

COZ042>045-048>051-090-091-160900-
...NORTHEAST COLORADO...

CITY           SKY/WX    TMP DP  RH WIND       PRES   REMARKS
GREELEY ARPT   FLURRIES  31  26  82 N14       29.99S WCI  21
AKRON          LGT SNOW  27  25  92 N8        29.92F FOG     WCI  19
BURLINGTON     FRZ RAIN  31  29  92 N14       29.90F WCI  21
WRAY           NOT AVBL
STERLING       LGT SNOW  30  30 100 N3        29.95F
HOLYOKE        CLOUDY    34  32  93 N6        29.96F FOG     WCI  29
FORT MORGAN    LGT SNOW  29  28  94 NW6       29.95F WCI  23
$$

COZ086-089-092>099-160900-
...SOUTHEAST COLORADO...

CITY           SKY/WX    TMP DP  RH WIND       PRES   REMARKS
PUEBLO         LGT SNOW  32  31  96 NW3       29.89F FOG
LA JUNTA       LGT SNOW  32  31  96 NW5       29.89F FOG     WCI  27
LAMAR          LGT SNOW  32  31  96 N5        29.88S FOG     WCI  27
SPRINGFIELD      N/A     29  29 100 N15       29.83F WCI  18
$$



USA.gov is the U.S. government's official web portal to all federal, state and local government web resources and services.